Weather History for Mount Sterling, KY

Change the Weather History Date:

Sunday, August 10, 2014

  Actual Average Record
Temperature  
Mean Temperature 74 °F -  
Max Temperature 80 °F 84 °F 80 °F (2014)
Min Temperature 69 °F 63 °F 69 °F (2014)
Cooling Degree Days 10    
Growing Degree Days 24 (Base 50)    
Moisture  
Dew Point 71 °F    
Average Humidity 93    
Maximum Humidity 100    
Minimum Humidity 74    
Precipitation  
Precipitation 0.35 in - - ()
Sea Level Pressure  
Sea Level Pressure 30.01 in    
Wind  
Wind Speed 3 mph (SE)    
Max Wind Speed 8 mph    
Max Gust Speed -    
Visibility 8 miles    
Events Rain    
Averages and records for this station are not official NWS values.
T = Trace of Precipitation, MM = Missing Value Source: NWS Daily Summary

Daily Weather History Graph

Daily Weather History Graph

Search for Another Location

Airport:

Trip Planner

Search our weather history database for the weather conditions in past years. The results will help you decide how hot, cold, wet, or windy it might be!

Date:

Astronomy

Aug. 10, 2014 Rise Set
Actual Time 6:46 AM EDT 8:35 PM EDT
Civil Twilight 6:18 AM EDT 9:03 PM EDT
Nautical Twilight 5:43 AM EDT 9:38 PM EDT
Astronomical Twilight 5:06 AM EDT 10:14 PM EDT
Moon 8:22 PM EDT (8/10) 6:36 AM EDT (8/10)
Length of Visible Light 14h 45m
Length of Day
13h 48m
Full, 100% of the Moon is Illuminated
Aug 10
Full
Aug 10
Full
Aug 17
Last Quarter
Aug 25
New
Sep 2
First Quarter

Hourly Weather History & Observations

Time (EDT) Temp. Heat Index Dew Point Humidity Pressure Visibility Wind Dir Wind Speed Gust Speed Precip Events Conditions
12:15 AM 71.6 °F - 69.8 °F 94% 30.03 in 10.0 mi Calm Calm - N/A   Clear
12:35 AM 69.8 °F - 69.8 °F 100% 30.03 in 5.0 mi Calm Calm - N/A   Clear
12:55 AM 71.6 °F - 69.8 °F 94% 30.03 in 10.0 mi ESE 3.5 mph - N/A   Clear
1:15 AM 71.6 °F - 69.8 °F 94% 30.02 in 10.0 mi ESE 3.5 mph - N/A   Clear
1:35 AM 69.8 °F - 69.8 °F 100% 30.02 in 7.0 mi Calm Calm - N/A   Clear
1:55 AM 69.8 °F - 69.8 °F 100% 30.02 in 10.0 mi East 3.5 mph - N/A   Clear
2:15 AM 69.8 °F - 69.8 °F 100% 30.01 in 7.0 mi ESE 3.5 mph - N/A   Clear
2:35 AM 69.8 °F - 69.8 °F 100% 30.01 in 7.0 mi Calm Calm - N/A   Scattered Clouds
2:55 AM 69.8 °F - 69.8 °F 100% 30.00 in 5.0 mi ESE 3.5 mph - N/A   Mostly Cloudy
3:15 AM 69.8 °F - 69.8 °F 100% 30.00 in 7.0 mi East 4.6 mph - N/A   Overcast
3:35 AM 69.8 °F - 69.8 °F 100% 30.00 in 7.0 mi ESE 4.6 mph - N/A   Overcast
3:55 AM 69.8 °F - 69.8 °F 100% 30.00 in 10.0 mi ESE 5.8 mph - N/A   Overcast
4:15 AM 69.8 °F - 69.8 °F 100% 30.00 in 10.0 mi ESE 4.6 mph - N/A   Overcast
4:35 AM 69.8 °F - 69.8 °F 100% 30.00 in 10.0 mi ESE 5.8 mph - N/A   Overcast
4:55 AM 69.8 °F - 69.8 °F 100% 30.00 in 10.0 mi East 5.8 mph - N/A   Overcast
5:15 AM 69.8 °F - 69.8 °F 100% 30.01 in 10.0 mi ESE 4.6 mph - N/A   Overcast
5:35 AM 69.8 °F - 69.8 °F 100% 30.01 in 10.0 mi SE 4.6 mph - N/A   Overcast
5:55 AM 69.8 °F - 69.8 °F 100% 30.01 in 10.0 mi East 3.5 mph - N/A   Overcast
6:15 AM 69.8 °F - 69.8 °F 100% 30.00 in 10.0 mi ESE 5.8 mph - N/A   Overcast
6:35 AM 69.8 °F - 69.8 °F 100% 30.01 in 10.0 mi ESE 5.8 mph - N/A   Overcast
6:55 AM 69.8 °F - 69.8 °F 100% 30.02 in 7.0 mi ESE 5.8 mph - N/A   Overcast
7:15 AM 69.8 °F - 69.8 °F 100% 30.02 in 7.0 mi ESE 3.5 mph - N/A   Overcast
7:35 AM 71.6 °F - 69.8 °F 94% 30.03 in 7.0 mi SE 4.6 mph - N/A   Overcast
7:55 AM 71.6 °F - 69.8 °F 94% 30.03 in 7.0 mi Calm Calm - N/A Rain Light Rain
8:15 AM 71.6 °F - 69.8 °F 94% 30.03 in 5.0 mi Calm Calm - 0.01 in Rain Rain
8:35 AM 71.6 °F - 69.8 °F 94% 30.04 in 4.0 mi Calm Calm - 0.02 in Rain Light Rain
8:55 AM 69.8 °F - 69.8 °F 100% 30.05 in 3.0 mi Calm Calm - 0.06 in Rain Rain
9:15 AM 69.8 °F - 69.8 °F 100% 30.05 in 4.0 mi Calm Calm - 0.02 in Rain Light Rain
9:35 AM 69.8 °F - 69.8 °F 100% 30.04 in 4.0 mi Calm Calm - 0.04 in Rain Rain
9:55 AM 69.8 °F - 69.8 °F 100% 30.04 in 2.5 mi Calm Calm - 0.08 in Rain Rain
10:15 AM 69.8 °F - 69.8 °F 100% 30.03 in 3.0 mi SE 5.8 mph - 0.05 in Rain Rain
10:35 AM 69.8 °F - 69.8 °F 100% 30.04 in 4.0 mi Calm Calm - 0.10 in Rain Rain
10:55 AM 71.6 °F - 71.6 °F 100% 30.04 in 4.0 mi Calm Calm - 0.14 in Rain Rain
11:15 AM 71.6 °F - 71.6 °F 100% 30.05 in 5.0 mi South 5.8 mph - 0.04 in Rain Rain
11:35 AM 71.6 °F - 71.6 °F 100% 30.06 in 7.0 mi South 5.8 mph - 0.05 in Rain Light Rain
11:55 AM 71.6 °F - 71.6 °F 100% 30.06 in 10.0 mi South 6.9 mph - 0.05 in   Overcast
12:15 PM 73.4 °F - 71.6 °F 94% 30.06 in 10.0 mi South 3.5 mph - N/A   Overcast
12:35 PM 73.4 °F - 71.6 °F 94% 30.05 in 10.0 mi South 5.8 mph - N/A   Overcast
12:55 PM 73.4 °F - 71.6 °F 94% 30.04 in 10.0 mi SSW 4.6 mph - N/A   Overcast
1:15 PM 77.0 °F - 71.6 °F 83% 30.04 in 10.0 mi SSW 8.1 mph - N/A   Overcast
1:35 PM 77.0 °F - 71.6 °F 83% 30.04 in 10.0 mi South 5.8 mph - N/A   Overcast
1:55 PM 77.0 °F - 71.6 °F 83% 30.03 in 10.0 mi SSW 3.5 mph - N/A   Overcast
2:15 PM 77.0 °F - 71.6 °F 83% 30.03 in 10.0 mi SSW 5.8 mph - N/A   Overcast
2:35 PM 78.8 °F - 71.6 °F 78% 30.03 in 10.0 mi South 4.6 mph - N/A   Overcast
2:55 PM 78.8 °F - 71.6 °F 78% 30.03 in 10.0 mi SE 5.8 mph - N/A   Overcast
3:15 PM 78.8 °F - 71.6 °F 78% 30.02 in 10.0 mi ESE 4.6 mph - N/A   Overcast
3:35 PM 80.6 °F 84.6 °F 71.6 °F 74% 30.01 in 10.0 mi SE 5.8 mph - N/A   Mostly Cloudy
3:55 PM 78.8 °F - 71.6 °F 78% 30.00 in 10.0 mi SE 5.8 mph - N/A   Overcast
4:15 PM 78.8 °F - 71.6 °F 78% 30.00 in 10.0 mi SE 5.8 mph - N/A   Overcast
4:35 PM 78.8 °F - 71.6 °F 78% 30.00 in 10.0 mi SSE 5.8 mph - N/A   Mostly Cloudy
4:55 PM 80.6 °F 84.6 °F 71.6 °F 74% 30.00 in 10.0 mi ESE 4.6 mph - N/A   Mostly Cloudy
5:15 PM 80.6 °F 84.6 °F 71.6 °F 74% 29.99 in 10.0 mi SE 4.6 mph - N/A   Scattered Clouds
5:35 PM 80.6 °F 84.6 °F 71.6 °F 74% 29.99 in 10.0 mi SSE 4.6 mph - N/A   Scattered Clouds
5:55 PM 80.6 °F 84.6 °F 71.6 °F 74% 29.98 in 10.0 mi SSE 6.9 mph - N/A   Scattered Clouds
6:15 PM 78.8 °F - 71.6 °F 78% 29.99 in 10.0 mi SSE 5.8 mph - N/A   Mostly Cloudy
6:35 PM 78.8 °F - 71.6 °F 78% 29.99 in 10.0 mi SSE 4.6 mph - N/A   Overcast
6:55 PM 78.8 °F - 71.6 °F 78% 29.98 in 10.0 mi South 5.8 mph - N/A   Overcast
7:35 PM 77.0 °F - 73.4 °F 89% 29.98 in 10.0 mi WSW 4.6 mph - N/A Rain Light Rain
7:55 PM 75.2 °F - 73.4 °F 94% 29.98 in 7.0 mi SE 3.5 mph - N/A   Drizzle
8:15 PM 73.4 °F - 71.6 °F 94% 29.97 in 10.0 mi SSE 8.1 mph - N/A Rain Light Rain
8:35 PM 73.4 °F - 71.6 °F 94% 29.98 in 10.0 mi SSE 8.1 mph - N/A   Overcast
8:55 PM 71.6 °F - 71.6 °F 100% 29.98 in 10.0 mi SSE 5.8 mph - N/A   Overcast
9:15 PM 71.6 °F - 71.6 °F 100% 29.98 in 7.0 mi SSE 5.8 mph - 0.02 in Rain Rain
9:35 PM 71.6 °F - 71.6 °F 100% 29.98 in 10.0 mi SSE 4.6 mph - 0.02 in   Overcast
9:55 PM 71.6 °F - 71.6 °F 100% 29.98 in 10.0 mi SSE 4.6 mph - 0.02 in   Overcast
10:15 PM 71.6 °F - 71.6 °F 100% 29.98 in 10.0 mi SE 5.8 mph - N/A   Mostly Cloudy
10:35 PM 71.6 °F - 71.6 °F 100% 29.99 in 10.0 mi SSE 4.6 mph - N/A   Mostly Cloudy
10:55 PM 71.6 °F - 71.6 °F 100% 29.99 in 10.0 mi SSE 4.6 mph - N/A   Mostly Cloudy
11:15 PM 71.6 °F - 71.6 °F 100% 29.99 in 10.0 mi South 4.6 mph - N/A   Mostly Cloudy
11:55 PM 71.6 °F - 71.6 °F 100% 29.99 in 10.0 mi Calm Calm - N/A   Mostly Cloudy